Location: *
(28.3744°N, 81.5492°W)
Time: 03:44:25
(UTC+00:00)

Meteor 2-1 Rocket - Pass Details

Date: 15 June 2025
Orbit: 822 x 913 km, 81.3° (Epoch: 11 July)

Event Time Altitude Azimuth Distance (km) Brightness Sun altitude
Rises 07:37:00 0° 352° (N) 3,541 8.1 -29.5°
Reaches altitude 10° 07:39:28 10° 351° (N) 2,600 7.3 -29.2°
Enters shadow 07:45:24 84° 273° (W) 920 4.2 -28.5°
